GW4332 Weather Reports


time (UTC)temp
F
wind
direction
speed
knots
gust
knots
rain 1hr
in
rain 24hr
in
rain mn
in
humidity
%
barometer
mb
20260507113030 55 323 9.6 12.2 0.00 0.00 0.00 75 1016.1
20260507112029 55 324 10.4 12.2 0.00 0.00 0.00 76 1016.1
20260507111029 55 321 9.6 12.2 0.00 0.00 0.00 76 1016.1
20260507110030 55 320 9.6 12.2 0.00 0.00 0.00 74 1016.2
20260507105029 54 334 8.7 10.4 0.00 0.00 0.00 72 1016.1
20260507104030 54 339 7.8 10.4 0.00 0.00 0.00 72 1016.2
20260507103030 54 324 7.8 10.4 0.00 0.00 0.00 74 1016.3
20260507102031 53 320 7.8 10.4 0.00 0.00 0.00 75 1016.2
20260507101029 53 328 7.8 10.4 0.00 0.00 0.00 75 1016.1
20260507100030 53 334 7.8 10.4 0.00 0.00 0.00 75 1016.1
20260507095029 52 331 7.8 9.6 0.00 0.00 0.00 76 1016.0
20260507094030 52 337 7.0 10.4 0.00 0.00 0.00 77 1016.0
20260507093030 52 332 6.1 10.4 0.00 0.00 0.00 76 1015.9
20260507092029 51 349 5.2 9.6 0.00 0.00 0.00 77 1015.9
20260507091029 51 348 6.1 11.3 0.00 0.00 0.00 77 1015.9
20260507090030 51 343 6.1 10.4 0.00 0.00 0.00 78 1015.8
20260507085029 51 336 7.0 9.6 0.00 0.00 0.00 78 1015.7
20260507084030 51 347 5.2 8.7 0.00 0.00 0.00 78 1015.7
20260507083030 50 338 6.1 8.7 0.00 0.00 0.00 78 1015.7
20260507082029 50 325 6.1 9.6 0.00 0.00 0.00 78 1015.6
20260507081030 51 332 5.2 8.7 0.00 0.00 0.00 78 1015.6
20260507080030 51 348 4.3 8.7 0.00 0.00 0.00 77 1015.6
20260507075030 51 346 5.2 8.7 0.00 0.00 0.00 76 1015.5
20260507074029 51 21 5.2 8.7 0.00 0.00 0.00 75 1015.4
20260507073030 51 22 4.3 9.6 0.00 0.00 0.00 75 1015.3
20260507072029 51 34 6.1 10.4 0.00 0.00 0.00 75 1015.3
20260507071030 51 31 5.2 9.6 0.00 0.00 0.00 75 1015.2
20260507070030 50 33 5.2 9.6 0.00 0.00 0.00 74 1015.2
20260507065029 50 30 5.2 10.4 0.00 0.00 0.00 74 1015.2
20260507064030 50 22 6.1 11.3 0.00 0.00 0.00 73 1015.1
20260507063029 50 37 6.1 10.4 0.00 0.00 0.00 72 1015.1
20260507062030 50 46 6.1 11.3 0.00 0.00 0.00 71 1015.0
20260507061030 50 37 6.1 11.3 0.00 0.00 0.00 72 1015.0
20260507060029 50 41 6.1 10.4 0.00 0.00 0.00 73 1015.0
20260507055030 50 50 6.1 10.4 0.00 0.00 0.00 74 1014.8
20260507054029 50 49 5.2 10.4 0.00 0.00 0.00 75 1014.8
20260507053030 49 62 2.6 4.3 0.00 0.00 0.00 77 1014.8
20260507052030 49 69 2.6 5.2 0.00 0.00 0.00 78 1014.6
20260507051029 49 50 3.5 6.1 0.00 0.00 0.00 78 1014.6
20260507050030 48 40 5.2 9.6 0.00 0.00 0.00 78 1014.5
20260507045029 48 35 6.1 9.6 0.00 0.00 0.00 79 1014.4
20260507044030 48 34 6.1 9.6 0.00 0.00 0.00 79 1014.4
20260507043029 48 37 5.2 9.6 0.00 0.00 0.00 79 1014.4
20260507042030 48 26 5.2 10.4 0.00 0.00 0.00 80 1014.3
20260507041030 48 16 5.2 8.7 0.00 0.00 0.00 81 1014.1
20260507040029 48 22 4.3 8.7 0.00 0.00 0.00 81 1014.0
20260507035030 47 18 5.2 9.6 0.00 0.00 0.00 82 1014.1
20260507034029 47 29 5.2 7.8 0.00 0.00 0.00 82 1014.0
20260507033030 47 44 4.3 7.8 0.00 0.00 0.00 82 1014.0
20260507032030 47 53 3.5 4.3 0.00 0.00 0.00 81 1013.9
20260507031029 47 57 3.5 5.2 0.00 0.00 0.00 82 1013.9
20260507030030 47 73 2.6 3.5 0.00 0.00 0.00 82 1013.9
20260507025029 47 57 1.7 3.5 0.00 0.00 0.00 82 1013.9
20260507024030 48 55 2.6 7.0 0.00 0.00 0.00 82 1013.8
20260507023030 48 44 3.5 7.0 0.00 0.00 0.00 82 1013.8
20260507022029 48 40 3.5 6.1 0.00 0.00 0.00 81 1013.7
20260507021030 48 20 4.3 8.7 0.00 0.00 0.00 81 1013.7
20260507020030 48 33 4.3 8.7 0.00 0.00 0.00 81 1013.6
20260507015030 49 16 4.3 8.7 0.00 0.00 0.00 80 1013.6
20260507014030 49 20 5.2 9.6 0.00 0.00 0.00 80 1013.5
20260507013030 48 20 5.2 8.7 0.00 0.00 0.00 79 1013.5
20260507012029 48 34 3.5 7.8 0.00 0.00 0.00 78 1013.5
20260507011030 48 48 4.3 7.8 0.00 0.00 0.00 78 1013.4
20260507010030 48 33 5.2 9.6 0.00 0.00 0.00 78 1013.4
20260507005029 48 31 4.3 7.8 0.00 0.00 0.00 79 1013.5
20260507004030 48 40 5.2 7.8 0.00 0.00 0.00 79 1013.4
20260507003029 48 37 5.2 8.7 0.00 0.00 0.00 79 1013.4
20260507002030 48 47 5.2 9.6 0.00 0.00 0.00 79 1013.4
20260507001029 48 48 4.3 8.7 0.00 0.00 0.00 80 1013.3
20260507000030 48 54 5.2 11.3 0.00 0.00 0.00 80 1013.3
20260506235030 48 48 6.1 11.3 0.00 0.00 0.00 80 1013.4
20260506234030 48 45 6.1 10.4 0.00 0.00 0.00 80 1013.4
20260506233030 48 40 5.2 9.6 0.00 0.00 0.00 80 1013.4
20260506232030 48 42 3.5 5.2 0.00 0.00 0.00 80 1013.3
20260506231029 48 48 2.6 4.3 0.00 0.00 0.00 80 1013.3
20260506230030 48 56 2.6 4.3 0.00 0.00 0.00 80 1013.3
20260506225029 48 61 2.6 7.0 0.00 0.00 0.00 79 1013.3
20260506224030 48 60 3.5 7.0 0.00 0.00 0.00 79 1013.2
20260506223029 48 63 3.5 7.0 0.00 0.00 0.00 78 1013.1
20260506222030 49 69 3.5 7.0 0.00 0.00 0.00 78 1013.1
20260506221030 49 65 3.5 7.8 0.00 0.00 0.00 77 1013.1
20260506220029 49 60 4.3 8.7 0.00 0.00 0.00 77 1013.0
20260506215030 49 54 5.2 11.3 0.00 0.00 0.00 77 1012.9
20260506214029 50 57 6.1 10.4 0.00 0.00 0.00 76 1012.9
20260506213030 50 44 6.1 9.6 0.00 0.00 0.00 75 1012.9
20260506212030 51 50 7.0 12.2 0.00 0.00 0.00 74 1012.8
20260506211029 51 41 7.0 11.3 0.00 0.00 0.00 73 1012.7
20260506210029 51 45 7.0 12.2 0.00 0.00 0.00 72 1012.6
20260506205030 51 44 7.0 11.3 0.00 0.00 0.00 70 1012.5
20260506204029 52 41 7.8 13.9 0.00 0.00 0.00 69 1012.5
20260506203029 52 47 7.0 11.3 0.00 0.00 0.00 69 1012.4
20260506202030 52 42 7.8 12.2 0.00 0.00 0.00 68 1012.3
20260506201030 53 51 7.8 12.2 0.00 0.00 0.00 68 1012.3
20260506200030 53 39 7.0 12.2 0.00 0.00 0.00 67 1012.2
20260506195030 53 46 6.1 11.3 0.00 0.00 0.00 66 1012.0
20260506194030 53 50 7.0 11.3 0.00 0.00 0.00 65 1012.0
20260506193029 53 48 7.8 13.0 0.00 0.00 0.00 65 1011.8
20260506192029 53 35 7.8 13.0 0.00 0.00 0.00 64 1011.6
20260506191030 54 35 7.8 16.5 0.00 0.00 0.00 64 1011.4
20260506190029 54 40 9.6 15.6 0.00 0.00 0.00 64 1011.3
20260506185030 54 38 8.7 16.5 0.00 0.00 0.00 64 1011.2
20260506184030 54 43 7.8 13.9 0.00 0.00 0.00 64 1011.1
20260506183030 54 42 9.6 17.4 0.00 0.00 0.00 65 1011.0
20260506182029 54 37 8.7 14.8 0.00 0.00 0.00 65 1010.9
20260506181030 55 50 7.8 13.0 0.00 0.00 0.00 66 1010.8
20260506180030 55 36 7.0 13.0 0.00 0.00 0.00 67 1010.7
20260506175029 55 20 9.6 16.5 0.00 0.00 0.00 67 1010.5
20260506174030 56 23 7.8 15.6 0.00 0.00 0.00 65 1010.4
20260506173030 56 36 5.2 12.2 0.00 0.00 0.00 65 1010.3
20260506172030 56 40 2.6 7.0 0.00 0.00 0.00 59 1010.3
20260506171030 55 74 5.2 10.4 0.00 0.00 0.00 58 1010.2
20260506170030 55 78 6.1 11.3 0.00 0.00 0.00 57 1010.2
20260506165029 56 80 7.0 12.2 0.00 0.00 0.00 56 1010.2
20260506164030 56 82 4.3 11.3 0.00 0.00 0.00 55 1010.1
20260506163030 55 87 4.3 12.2 0.00 0.00 0.00 55 1010.1
20260506162030 55 74 6.1 14.8 0.00 0.00 0.00 55 1009.9
20260506161030 55 75 7.8 16.5 0.00 0.00 0.00 56 1010.0
20260506160029 55 58 8.7 16.5 0.00 0.00 0.00 56 1010.0
20260506155029 56 77 7.8 13.0 0.00 0.00 0.00 55 1010.0
20260506154029 56 79 9.6 18.2 0.00 0.00 0.00 54 1010.0
20260506153029 56 82 7.8 15.6 0.00 0.00 0.00 54 1010.0
20260506152030 56 69 7.8 13.9 0.00 0.00 0.00 53 1010.0
20260506151030 56 45 8.7 13.0 0.00 0.00 0.00 53 1010.0
20260506150030 57 30 7.8 15.6 0.00 0.00 0.00 52 1009.9
20260506145029 57 45 7.8 13.9 0.00 0.00 0.00 51 1009.9
20260506144029 57 54 7.0 13.0 0.00 0.00 0.00 50 1009.9
20260506143029 57 53 8.7 14.8 0.00 0.00 0.00 48 1009.9
20260506142029 57 71 8.7 15.6 0.00 0.00 0.00 46 1009.8
20260506141030 57 73 7.0 14.8 0.00 0.00 0.00 49 1009.8
20260506140030 57 75 7.0 13.9 0.00 0.00 0.00 48 1009.8
20260506135030 57 67 8.7 16.5 0.00 0.00 0.00 49 1009.7
20260506134030 57 88 8.7 17.4 0.00 0.00 0.00 46 1009.6
20260506133029 57 87 8.7 18.2 0.00 0.00 0.00 47 1009.7
20260506132029 57 92 7.8 20.0 0.00 0.00 0.00 44 1009.7
20260506131029 57 77 11.3 20.0 0.00 0.00 0.00 44 1009.6
20260506130030 57 77 10.4 23.5 0.00 0.00 0.00 45 1009.6
20260506125029 57 70 9.6 20.9 0.00 0.00 0.00 46 1009.5
20260506124029 57 81 10.4 20.9 0.00 0.00 0.00 44 1009.5
20260506123030 57 71 10.4 18.2 0.00 0.00 0.00 45 1009.5
20260506122030 57 72 10.4 18.2 0.00 0.00 0.00 47 1009.4
20260506121030 57 66 8.7 16.5 0.00 0.00 0.00 46 1009.4
20260506120030 57 80 4.3 15.6 0.00 0.00 0.00 47 1009.5
20260506115030 58 77 8.7 20.9 0.00 0.00 0.00 45 1009.4
20260506114030 58 96 6.1 21.7 0.00 0.00 0.00 49 1009.4